DECAYED

STARLINK-1593, 46119 (Decayed)

Orbit data source: Space-Track

STARLINK-1593, 46119 was a payload satellite owned by SpaceX/Seattle (US) in LEO that was launched on Tue, 18 Aug 2020 UTC via an FALCON 9 launch vehicle from the Air Force Eastern Test Range (AFETR). Payload-class satellites include a variety of spacecraft equipped with specific instruments for various scientific and technological missions. These include communications satellites like Starlink; space stations such as the ISS; scientific satellites like the Hubble; Earth observation satellites from companies like Planet Labs, Umbra, and HawkEye 360; GPS; miniature CubeSats for education and research; and military/defense satellites.

Not visible in the next 10 days
Identifier
46119, 2020-057C
Orbit
Decayed
Country
Flag of USUS
Related business
Manufacturer
SpaceX/Seattle
Mission
Decayed Commercial Communications
Bus & Motor
STARLINK, Unknown motor
Mass
260 kg wet, ~248 kg dry
Launch date (UTC)
2020-08-18 (6 years ago)
Launch vehicle
FALCON 9
Launch site
Air Force Eastern Test Range (AFETR)
Object type
Payload
Rocket body
Debris
Shape & HBR
Box + 1 Pan, 10.1 m
Radar Cross Section
13.562 m², Large (>1 m²)

Expand to show TLE details & history
Last TLE update: 2 months ago

TLE from 2 months ago
0 STARLINK-1593
1 46119U 20057C   26125.99433002  .09196762  12338-4  69401-3 0  9995
2 46119  53.0203 338.4355 0010133 265.9717  94.0170 16.39515796317095
Epoch: 2026-05-05T23:51Z
TLE epoch observation values (Epoch: 2026-05-05T23:51:50.113Z)
Latitude
-0.00009°
Longitude
116.61543°
Altitude
168.488 km
Speed
7.806 km/s
True Right ascension
22h 33m 44s
True Declination
0° 00' 00"
Sunlit
Object was in daylight at epoch
Visualization orbit readout
Latitude
Unknown
Longitude
Unknown
Altitude
Unknown
Speed
Unknown
Apparent Right ascension
Unknown
Apparent Declination
Unknown
Sunlit
N/A
Visualization observer readout
Local Sidereal Time
21:38:46
Azimuth
Unknown
Elevation
Unknown
Doppler factor
Unknown
Orbital elements
Apogee altitude
174.015 km
Perigee altitude
160.75 km
Semi-major axis
6,545.52 km
Eccentricity
0.00101
Inclination
53.0203°
RAAN
338.4355°
Arg. of periapsis
265.9717°
True anomaly
94.13282°
Mean anomaly
94.017°
Eccentric anomaly
94.07491°
Mean motion
4.09852 °/min
Orbital period
87.84 mins
BSTAR
0.00069401
Loading maneuver chart data...
Computing Atmospheric mass density...

Documentation

Showing up to 5 results
|